Location: Carson
(33.8314°N, 118.2820°W)
Time: 13:28:30
(UTC+00:00)

Cosmos 1515 Rocket - Pass Details

Date: 23 November 2020
Orbit: 605 x 631 km, 82.5° (Epoch: 22 January)

Event Time Altitude Azimuth Distance (km) Brightness Sun altitude
Rises 13:48:12 0° 357° (N) 2,921 6.8 -9.6°
Reaches altitude 10° 13:50:27 10° 360° (N) 2,012 6.0 -9.1°
Maximum altitude 13:54:53 66° 82° (E) 689 4.1 -8.3°
Drops below altitude 10° 13:59:19 10° 165° (SSE) 2,002 6.7 -7.4°
Sets 14:01:33 0° 168° (SSE) 2,904 7.5 -7.0°
